Wind_Speed
24 24 25 25 26 27 28 29 29 30 31 31 31 32 32 33 33 33 33 33 33 33 33 32 31 31 30 29 28 27 27 26 26 25 25 25 25 25 25 25 25 25 25 25 24 23 22 21 21 20 19 18 16 15 15 16 18 20 21 20 20 20 20 20 20 20 20 19 19
24 25 26 27 28 29 30 31 31 31 32 32 32 32 33 33 33 34 34 33 33 32 32 31 31 30 29 28 26 26 25 25 25 25 25 25 25 26 26 26 27 27 26 26 25 24 22 22 21 20 20 19 19 20 21 23 23 23 22 21 19 19 18 18 18 18 18 17 17
26 27 28 29 30 31 32 32 32 32 32 32 32 32 32 33 33 33 33 32 31 31 31 30 30 29 28 26 25 24 24 24 24 25 25 25 26 26 26 26 27 27 27 26 24 23 22 22 22 22 22 23 23 23 23 22 21 19 18 17 17 17 17 18 18 18 18 18 17
27 28 30 31 32 32 33 33 32 32 32 32 32 32 32 32 32 32 31 30 30 29 29 29 29 28 27 26 24 24 23 23 24 24 24 25 25 25 26 26 26 26 26 25 23 22 21 21 22 22 22 22 21 21 20 18 17 17 17 18 18 19 19 19 19 19 19 19 18
29 30 31 32 32 33 33 32 32 31 31 31 31 31 32 31 31 30 29 28 28 28 28 28 29 28 27 25 24 23 23 23 23 23 24 24 24 25 25 25 25 25 24 23 21 20 19 19 19 19 18 18 18 17 17 17 18 19 19 20 20 20 20 20 20 20 20 20 19
30 31 31 32 33 33 32 31 31 30 30 30 30 31 31 30 29 28 27 26 26 27 27 28 28 27 26 24 23 22 22 22 22 23 23 23 24 24 24 24 24 23 21 19 17 17 16 16 17 17 17 17 17 18 19 20 20 20 20 20 19 19 20 20 21 21 22 22 22
30 31 32 33 33 32 32 31 30 29 29 29 30 30 29 28 27 25 25 25 25 26 27 28 28 27 25 22 21 20 20 21 22 23 23 23 23 23 23 23 22 20 17 15 15 15 15 15 16 16 17 17 18 19 20 20 19 18 18 17 18 19 20 21 22 23 24 24 25
30 31 32 33 32 32 31 30 29 29 29 29 29 29 28 26 24 23 23 24 26 27 28 28 27 26 23 20 18 18 19 20 22 23 23 22 22 22 21 20 18 15 14 13 14 14 15 15 16 16 17 17 18 17 17 17 16 16 16 16 18 19 21 22 23 24 25 26 27
31 32 33 32 32 31 30 29 29 28 28 28 28 27 26 24 23 22 23 25 26 27 28 28 26 24 21 18 16 16 18 20 21 22 22 21 20 19 18 16 14 12 12 13 14 15 15 16 16 16 16 16 16 15 14 14 14 14 15 16 18 20 21 22 23 24 25 27 27
32 33 33 32 31 30 30 29 28 28 28 28 27 26 24 22 22 22 23 25 26 27 27 26 24 21 18 16 15 15 17 19 20 21 21 20 18 15 13 11 11 12 13 14 15 16 16 17 17 17 16 15 14 14 13 13 14 14 15 17 18 20 21 22 23 24 25 27 27
32 33 32 31 31 30 29 29 28 28 28 27 26 24 23 21 21 22 23 24 25 26 25 23 21 19 17 15 15 16 17 18 19 19 19 17 14 11 9 9 10 11 13 14 15 16 17 17 17 17 16 16 15 14 14 14 14 15 16 17 19 20 21 22 23 24 25 26 27
32 32 31 31 30 30 29 29 29 28 27 26 25 23 22 21 21 21 22 24 25 24 23 21 19 17 17 17 17 17 17 18 18 17 16 14 12 10 9 9 10 11 12 14 15 16 17 17 17 17 17 16 16 15 15 15 16 17 17 19 20 21 22 23 24 25 25 26 27
32 32 31 30 30 30 29 29 29 28 27 25 23 22 21 20 20 21 22 23 24 23 21 19 17 17 18 19 19 18 17 17 16 15 13 12 11 10 9 9 10 11 12 13 14 15 16 16 17 17 17 17 16 16 16 16 17 18 18 20 21 22 22 23 24 25 26 26 27
32 31 31 30 30 30 30 29 29 27 26 24 22 21 20 20 20 20 21 22 23 22 20 18 18 18 18 19 19 18 16 15 14 13 12 11 10 9 9 9 10 11 12 13 13 14 15 16 16 17 17 17 17 17 17 17 17 18 19 20 21 22 23 23 24 25 25 26 26
32 31 31 30 30 30 30 29 28 27 24 22 21 20 20 19 19 20 20 22 22 22 20 18 18 18 18 18 17 16 15 13 12 11 10 9 8 8 8 9 10 11 11 12 13 14 14 15 16 16 16 16 16 16 16 17 18 18 19 20 21 22 23 23 24 24 25 25 26
32 31 31 30 30 30 30 29 27 25 23 21 20 20 19 19 19 19 20 21 22 21 20 18 18 18 17 17 16 15 13 12 11 10 9 8 8 8 8 9 10 11 11 12 12 13 13 14 15 15 15 15 16 16 16 17 18 19 20 21 21 22 23 24 24 25 25 25 25
32 32 31 31 30 30 30 28 26 24 21 20 20 19 19 19 19 19 19 20 21 21 21 19 18 17 16 15 14 13 12 11 10 9 9 9 9 9 9 10 11 11 12 12 12 13 13 14 14 15 15 15 15 16 17 17 19 20 21 22 23 24 24 25 26 26 26 26 25
33 32 31 31 31 30 30 28 25 22 20 19 19 19 19 18 18 19 19 20 20 21 21 20 18 17 15 14 13 13 12 11 10 10 10 10 10 11 11 11 12 12 12 12 12 13 13 14 15 15 15 16 16 17 18 19 20 21 22 24 25 26 27 28 28 27 27 26 25
34 33 32 31 31 30 29 27 24 21 19 19 19 19 18 18 18 18 19 20 20 20 20 20 18 16 15 14 13 12 12 11 11 11 10 11 11 12 12 12 12 13 13 13 13 13 14 15 16 17 17 18 18 19 20 21 22 24 25 26 27 28 29 29 29 28 27 26 25
34 33 33 32 31 31 29 27 23 21 19 18 18 18 18 18 18 18 19 19 20 20 19 18 17 16 15 14 13 13 12 12 12 12 11 12 12 13 13 13 13 14 14 14 15 16 17 18 19 19 20 20 21 22 23 24 25 27 28 28 29 30 30 29 29 28 27 25 24
35 34 33 32 31 30 29 26 23 20 19 18 18 18 18 18 18 18 18 19 19 18 17 16 15 15 15 14 14 13 13 13 13 13 13 13 13 14 14 14 15 15 16 16 17 18 19 20 21 21 21 22 23 24 26 27 28 29 29 30 30 30 29 28 27 26 25 24 24
35 34 33 32 31 30 28 26 23 20 18 18 18 18 18 18 18 18 18 17 17 16 15 14 14 14 14 14 14 14 14 14 14 14 14 15 15 15 15 16 16 16 17 18 19 20 21 21 22 22 23 24 26 27 28 29 30 30 30 30 30 29 28 27 26 24 24 23 23
35 35 33 32 31 30 28 26 23 20 19 18 17 17 17 18 18 17 17 16 15 14 14 14 14 14 14 14 15 15 15 16 16 16 16 16 16 16 16 16 16 17 17 19 20 21 22 23 24 25 26 27 28 29 30 30 30 30 30 30 30 29 28 27 26 25 24 23 23
35 35 34 32 31 29 28 25 23 21 19 18 17 17 17 17 17 17 16 15 15 14 14 15 15 15 15 15 16 16 17 17 17 17 17 16 16 16 16 16 17 17 18 20 21 22 23 24 26 27 28 29 30 30 30 30 30 30 30 29 29 29 29 28 28 27 26 25 25
35 35 34 32 31 29 27 25 23 21 19 18 17 17 17 17 17 17 16 16 16 15 16 16 16 17 17 17 17 18 18 18 18 17 17 17 17 17 17 17 18 18 20 21 23 24 25 26 27 28 29 30 30 30 30 29 29 29 29 29 29 29 29 29 29 28 28 27 27
34 34 34 32 31 29 26 24 22 20 19 18 18 17 17 17 17 17 17 17 17 17 17 17 18 18 19 19 19 19 19 19 18 18 18 17 17 18 18 19 19 21 22 23 24 26 27 27 28 29 29 29 29 29 29 29 28 28 28 28 28 29 29 29 29 29 29 29 29
34 34 34 32 30 28 25 23 21 20 19 18 18 18 18 18 18 18 18 18 18 18 18 18 18 19 20 20 20 20 19 19 18 18 18 18 18 19 19 20 22 23 24 25 26 27 28 28 29 29 29 29 29 28 28 28 28 28 28 28 28 28 29 29 29 30 30 30 30
34 34 33 32 30 27 24 22 20 19 19 19 19 19 19 19 19 19 19 19 19 19 18 18 18 19 19 20 20 19 19 18 18 18 18 18 19 20 21 22 24 25 26 27 27 28 28 29 29 29 29 28 28 28 28 28 28 28 28 28 28 28 28 29 29 30 30 30 30
33 33 33 31 29 26 23 21 19 18 18 18 19 19 20 20 20 20 20 20 20 19 19 19 18 19 19 19 19 19 19 18 18 17 17 18 19 21 22 24 25 26 27 27 28 28 28 29 29 29 29 28 28 28 28 28 28 29 29 29 29 30 30 30 30 30 30 30 30
33 33 32 30 28 25 22 20 18 18 18 18 19 20 20 21 21 21 21 21 21 20 20 19 19 19 18 18 18 18 18 18 18 17 18 18 20 22 23 25 26 26 27 27 28 28 29 29 29 29 29 29 29 29 29 30 30 30 31 31 32 32 32 32 32 32 31 30 30
32 32 31 30 27 24 21 19 18 18 18 19 19 20 21 21 22 22 22 22 22 22 21 20 19 19 18 18 18 18 18 18 18 18 18 19 21 23 24 25 26 26 27 28 28 29 29 30 30 30 31 31 31 31 31 32 32 33 33 34 34 34 34 34 33 32 31 30 29
32 31 31 29 26 23 20 19 18 17 18 19 20 21 21 22 22 23 23 23 23 22 21 21 19 19 18 18 17 17 17 17 18 18 19 21 22 24 25 26 26 27 27 28 29 29 30 31 31 31 32 32 32 32 33 33 34 34 35 35 36 35 35 34 33 31 30 28 27
31 31 30 28 25 23 20 18 17 18 18 19 20 21 22 23 23 23 23 23 23 22 21 20 19 18 17 17 16 16 16 17 18 19 21 22 24 25 25 26 26 26 27 28 29 30 30 31 31 32 32 33 33 33 34 34 35 36 36 36 36 35 34 33 31 30 28 27 25
30 30 29 27 24 22 20 18 18 18 19 20 21 22 23 24 24 24 24 23 22 21 20 20 18 17 16 15 15 15 16 17 19 21 22 24 25 25 25 25 26 26 27 27 28 29 29 30 30 31 31 32 33 33 34 35 36 36 37 37 36 35 33 31 29 28 26 25 24
30 29 28 26 24 21 20 18 18 18 19 21 22 23 24 24 24 24 23 22 21 20 19 18 17 16 15 15 15 16 17 19 21 22 23 24 24 24 25 25 25 26 26 27 28 28 28 28 28 29 30 31 32 33 34 35 36 37 37 36 35 33 31 29 27 26 24 23 22
29 28 27 25 23 21 19 18 18 19 20 21 23 24 25 25 24 23 22 21 19 18 17 16 16 15 15 15 16 17 19 21 22 22 23 23 23 24 24 24 25 26 26 27 27 27 27 28 28 28 30 31 33 34 35 36 37 37 36 35 33 31 29 27 26 24 23 22 21
28 27 26 24 22 20 19 18 19 19 20 22 23 25 25 25 24 22 21 19 17 16 15 15 15 15 15 16 17 19 20 21 21 22 22 23 23 23 24 25 25 26 26 27 27 27 27 27 28 29 30 32 33 35 36 37 37 36 35 33 30 29 28 27 25 24 22 21 20
27 27 25 23 21 20 19 18 19 20 21 23 24 25 26 25 23 21 19 17 16 15 14 14 15 15 16 17 18 19 20 20 21 21 22 22 23 23 24 25 26 26 26 26 26 26 27 27 28 29 31 32 34 35 36 36 36 34 32 31 29 28 28 27 26 24 22 20 19
27 26 24 22 20 19 18 18 18 20 21 23 25 26 25 24 21 19 16 15 14 14 14 14 15 16 16 17 18 18 19 20 20 21 21 22 23 24 24 25 26 26 26 26 26 26 27 27 28 30 31 33 34 35 35 35 34 32 31 30 29 29 29 28 26 24 22 20 18
26 25 23 21 19 18 18 18 18 20 22 24 25 25 24 22 19 16 14 13 13 13 13 13 15 16 16 17 17 18 19 20 20 21 21 22 23 24 25 25 25 26 26 26 26 26 27 28 29 30 31 32 33 34 34 33 32 31 30 30 29 29 29 28 26 24 22 20 18
25 24 22 20 18 17 17 18 19 20 22 24 25 25 23 20 17 14 13 12 12 12 13 14 15 15 16 16 17 18 19 19 20 21 21 22 23 24 25 25 25 25 25 25 26 26 27 28 29 30 31 32 32 33 32 31 31 30 30 30 29 28 27 27 26 24 21 20 19
Wind_Direction
345 346 346 346 346 345 344 344 343 343 343 342 342 341 340 339 338 337 336 336 335 334 333 331 331 330 330 331 331 331 331 330 329 327 325 323 321 319 317 315 313 311 309 308 306 304 302 300 296 291 286 282 279 282 291 303 310 314 315 317 319 321 324 328 332 336 339 342 344
348 348 348 347 346 345 345 344 344 344 343 343 343 342 340 339 338 337 337 336 335 334 333 332 331 330 330 330 331 330 329 328 326 325 324 323 322 320 319 318 316 314 312 309 307 305 304 302 299 297 295 295 296 300 304 308 311 313 316 320 325 329 333 338 340 342 342 342 342
350 349 348 347 347 346 346 345 345 344 343 342 341 341 339 338 338 337 336 336 335 334 333 332 331 330 330 330 329 329 327 326 324 324 323 322 322 322 321 321 320 318 315 311 308 307 307 307 307 307 307 308 309 309 309 311 314 318 325 334 341 345 348 349 348 347 345 343 341
351 349 349 348 347 347 346 345 344 343 342 341 340 339 338 337 337 337 336 336 335 334 333 332 331 330 329 328 327 326 325 324 324 323 323 322 322 322 323 323 322 320 317 313 310 310 313 316 318 319 320 320 319 318 319 323 328 336 344 351 356 358 358 356 354 353 351 348 345
350 349 348 347 346 346 345 344 343 342 341 340 339 338 338 337 337 337 337 336 336 335 333 332 330 328 327 326 325 324 324 324 324 323 323 322 322 323 324 324 323 321 318 315 316 320 325 330 333 336 338 339 339 340 343 347 352 356 360 2 3 2 1 359 358 356 354 351 349
349 347 346 346 345 344 344 343 342 341 340 339 339 338 338 338 338 338 337 337 336 335 333 331 329 328 326 325 324 324 324 325 325 323 322 321 322 324 325 324 322 320 319 322 329 337 344 348 351 354 357 358 360 1 3 5 6 6 6 5 2 360 358 356 355 353 352 350 349
348 346 346 345 344 344 343 342 341 340 339 339 339 339 340 339 339 338 338 337 336 335 334 332 330 328 326 324 323 324 326 326 324 321 319 319 321 323 323 322 320 321 327 337 348 356 0 3 4 5 6 7 7 8 8 8 7 5 2 359 355 352 351 350 350 349 348 348 347
346 345 345 345 344 343 342 341 341 340 339 340 340 341 341 340 339 338 338 338 338 337 336 334 332 329 325 323 324 326 327 325 320 316 314 315 316 318 318 318 321 329 342 354 2 6 8 8 8 7 7 7 7 7 6 3 360 356 352 348 346 345 345 345 345 345 345 344 344
345 345 345 345 344 343 342 342 341 340 340 340 342 342 342 341 339 339 339 339 339 338 337 335 332 329 326 325 328 330 328 322 317 313 311 310 311 311 314 319 330 345 358 4 7 7 7 6 5 4 3 3 2 0 357 353 349 345 342 340 339 339 340 340 341 341 341 341 341
345 345 345 345 344 344 343 342 341 340 341 341 342 343 342 341 340 339 340 340 339 338 337 335 333 329 328 329 334 334 329 321 315 312 309 308 306 309 317 332 348 360 5 6 4 3 1 360 358 357 356 355 353 349 346 341 338 335 334 334 335 335 336 337 337 337 337 338 338
346 347 346 346 345 344 343 342 341 341 341 342 343 343 343 341 340 340 340 340 339 338 337 336 334 333 334 338 343 340 332 323 316 313 310 308 308 315 332 350 0 5 5 2 359 356 353 350 348 346 345 344 342 339 334 331 329 329 329 330 331 332 333 333 334 334 334 334 335
348 348 347 347 346 344 343 342 342 342 343 344 344 343 342 341 339 339 339 339 339 338 337 338 338 340 343 348 351 348 339 329 322 318 317 317 322 334 349 360 6 5 1 356 350 346 342 339 337 335 334 333 332 329 326 325 324 325 326 327 328 329 329 330 330 330 331 331 331
349 349 348 347 346 345 343 343 343 344 344 345 344 343 341 339 338 338 339 340 339 338 339 341 345 349 353 355 356 353 346 338 333 331 333 337 344 350 358 4 6 2 354 347 341 336 332 330 328 326 325 324 323 322 320 320 320 321 322 323 324 324 325 326 326 326 326 327 327
350 350 349 347 346 345 344 344 345 345 345 345 344 342 340 338 337 338 339 340 339 339 340 344 351 357 0 0 358 355 351 349 347 348 350 354 357 360 2 3 360 353 345 338 333 330 327 325 323 321 319 318 318 317 316 315 315 316 317 317 318 319 320 321 321 322 322 322 323
351 350 349 347 346 345 345 345 346 346 346 344 343 341 339 337 337 337 338 340 340 340 342 348 355 1 3 1 358 355 355 356 356 356 357 358 359 358 357 354 348 342 336 332 329 327 325 323 321 319 317 316 315 313 312 311 310 310 311 312 313 315 316 317 317 318 319 319 319
351 350 348 347 346 346 346 347 347 346 345 343 341 340 339 338 338 338 338 339 340 341 344 351 357 0 1 358 355 353 354 355 356 354 353 351 349 346 344 341 337 333 330 327 326 324 323 321 319 318 316 314 312 310 307 306 306 306 308 309 311 312 314 315 316 317 317 318 318
351 350 348 347 347 346 347 347 347 346 344 341 340 340 340 339 339 338 339 340 340 342 345 351 356 358 357 354 351 349 349 350 350 347 344 340 337 336 334 333 330 327 324 323 322 322 321 319 318 316 314 312 309 307 305 304 305 306 308 309 311 312 314 315 317 318 318 318 317
351 350 349 348 347 347 348 348 347 345 342 340 339 340 340 340 340 339 340 341 341 342 345 349 353 354 351 348 345 344 343 343 343 341 338 335 333 332 331 329 326 323 321 320 320 321 320 319 317 315 313 310 308 307 306 307 308 309 310 311 313 314 315 316 317 318 319 319 318
351 350 349 348 348 348 348 348 346 343 340 338 338 339 340 340 340 340 340 341 342 343 344 347 348 347 345 342 339 337 337 337 336 336 335 334 332 331 329 327 325 323 322 321 322 322 322 320 318 316 314 312 310 310 310 310 311 312 313 314 315 315 316 316 317 318 318 318 317
351 350 349 349 349 348 349 348 346 342 338 336 336 337 338 338 338 339 340 341 342 342 343 343 342 340 338 336 335 333 332 331 331 331 332 332 331 329 327 326 325 324 324 324 323 323 322 321 319 317 315 314 313 313 313 314 314 314 315 315 315 315 315 315 316 316 316 315 314
350 350 350 349 349 349 349 347 345 341 336 334 334 335 336 336 336 337 338 339 339 339 338 337 335 333 332 331 331 332 331 330 328 328 329 329 328 326 325 325 324 324 324 324 324 324 323 321 319 317 317 316 316 316 316 316 316 315 315 314 314 314 314 313 313 313 312 311 310
350 350 349 349 349 349 348 347 344 340 335 332 333 334 335 335 334 335 336 336 336 334 332 330 329 328 327 327 329 331 331 330 328 327 327 326 326 325 325 324 324 324 324 324 324 324 323 321 320 319 319 319 318 318 317 317 316 315 314 313 313 312 312 311 310 308 306 305 304
349 349 349 349 349 348 347 346 343 338 334 332 332 334 335 334 333 333 332 332 330 328 325 324 323 323 323 323 325 328 329 328 328 327 326 325 325 324 324 324 324 324 324 325 325 324 323 322 322 321 320 319 319 318 317 316 315 314 314 313 312 312 311 309 306 303 300 297 295
348 348 348 348 348 348 346 344 341 337 334 332 332 333 333 333 331 330 329 328 326 324 322 321 320 319 319 321 323 324 325 325 325 325 325 324 323 323 324 324 324 324 325 324 324 324 323 323 322 321 320 319 318 317 316 316 315 314 314 313 312 311 310 309 306 302 298 294 291
347 347 348 348 347 347 346 344 340 336 333 331 331 331 331 330 329 327 326 325 324 323 322 321 320 319 319 320 321 322 323 322 322 322 322 322 323 323 324 324 324 324 324 324 323 323 323 322 322 321 320 319 318 317 316 316 315 314 314 313 312 311 310 308 306 303 299 296 293
345 346 347 347 346 346 345 343 340 336 333 331 330 329 329 328 327 326 325 324 324 323 322 321 320 320 320 321 321 321 321 321 321 322 323 324 325 326 326 326 325 324 324 324 323 323 322 322 321 320 319 319 318 317 317 316 315 315 314 314 313 312 310 309 307 305 302 299 296
344 345 346 346 346 345 344 342 339 336 333 331 330 329 328 328 326 325 324 323 323 322 322 321 321 321 321 322 323 323 323 323 324 326 328 329 329 328 327 325 324 324 324 323 323 323 322 321 321 320 320 320 319 319 318 317 317 316 316 315 314 314 313 311 310 308 306 303 301
343 344 345 345 345 344 343 341 339 336 334 332 331 330 329 328 326 325 323 323 322 322 321 321 321 321 322 323 325 326 327 329 330 331 331 330 328 326 325 324 324 324 323 323 323 322 322 322 322 322 322 321 321 320 320 319 319 318 318 318 317 317 316 315 314 312 310 308 305
342 343 344 344 344 343 341 340 338 337 336 334 333 331 329 328 326 324 323 323 322 321 321 321 321 321 322 324 326 327 329 331 331 330 328 325 324 323 323 324 324 324 323 323 323 323 323 323 323 323 323 323 322 322 321 321 320 320 320 320 321 321 320 320 318 316 314 311 308
341 342 343 343 342 341 340 338 337 337 336 336 334 333 331 329 327 326 324 323 322 322 321 320 320 321 323 324 326 326 327 327 326 324 322 321 321 323 324 324 324 324 324 323 323 323 324 324 325 325 324 324 324 324 324 323 323 323 324 324 324 324 324 323 321 319 316 313 309
341 341 342 342 341 340 338 336 336 336 336 336 336 335 333 331 329 327 326 325 324 322 321 320 320 321 323 324 325 325 324 323 321 320 320 321 323 324 325 325 325 324 324 324 324 324 325 325 326 326 326 326 326 326 327 327 327 327 327 327 327 327 326 325 323 321 317 314 311
340 341 341 341 340 338 336 334 334 334 336 337 337 336 334 332 330 328 327 326 325 324 323 322 322 323 324 325 326 325 323 321 319 320 321 324 326 326 326 326 325 325 324 324 325 326 327 327 328 328 328 329 329 329 330 330 329 329 329 329 329 328 327 326 324 321 318 315 312
339 340 340 340 338 336 334 332 331 333 335 337 337 336 335 333 330 328 327 326 326 325 325 325 325 326 326 327 327 324 321 320 320 322 324 326 327 326 326 325 325 325 325 325 326 328 329 330 331 331 330 331 331 331 331 330 330 330 330 329 329 328 327 326 324 321 319 316 314
338 338 339 338 337 334 332 330 330 331 334 336 337 336 334 332 330 328 326 326 326 326 326 327 328 328 328 327 326 323 321 322 323 325 325 325 325 325 324 324 324 325 326 327 328 330 331 332 332 332 331 331 331 330 330 330 329 329 329 329 329 328 327 325 324 321 319 318 317
336 337 337 337 335 332 330 328 328 330 332 334 335 335 333 331 329 327 325 325 325 326 327 328 329 329 329 328 326 324 324 325 325 324 323 323 322 322 322 323 324 325 327 328 329 331 332 332 332 332 331 330 330 329 329 329 329 329 329 329 329 328 327 326 324 323 321 321 321
335 336 336 335 333 331 328 326 327 329 331 333 334 334 332 330 328 326 324 323 324 326 328 329 329 329 329 329 327 326 325 324 323 322 321 320 320 320 321 323 324 326 328 329 330 331 331 332 332 331 330 329 329 329 329 330 330 330 329 329 329 328 328 327 326 326 326 326 327
334 335 335 333 331 328 326 325 326 328 330 332 333 332 331 329 328 325 324 323 324 326 328 329 329 329 328 327 326 325 323 320 320 320 319 319 319 320 322 323 325 327 328 329 330 331 331 331 331 331 330 330 330 330 330 331 330 330 330 329 329 329 329 330 330 331 332 332 333
333 333 333 332 329 327 325 324 325 327 329 331 331 331 330 329 327 326 324 324 325 327 329 329 329 327 325 324 324 322 321 319 319 318 318 318 319 321 323 325 327 328 329 330 331 331 331 331 332 332 331 331 331 331 331 331 331 331 330 330 330 330 331 333 334 335 336 337 337
331 332 331 330 327 324 323 323 325 327 329 330 330 330 330 329 328 327 326 326 327 328 329 329 328 325 324 323 323 321 319 318 318 318 318 319 321 323 325 327 328 329 330 331 332 332 332 332 332 333 333 332 332 332 332 332 332 332 332 332 333 333 334 334 335 336 337 338 338
329 330 329 327 325 322 321 321 323 326 328 329 329 329 329 329 329 329 329 329 329 329 329 328 325 323 322 322 321 320 318 317 317 318 320 322 323 325 327 329 330 330 331 332 332 332 332 333 333 334 334 334 333 333 333 334 334 335 335 336 336 336 334 333 333 334 336 337 337
328 328 327 325 322 320 319 320 323 325 327 328 329 329 329 330 331 331 331 330 330 329 328 326 324 323 322 321 319 317 316 316 318 320 322 324 326 327 329 330 331 332 332 332 333 333 333 334 335 335 335 335 335 335 335 337 338 338 339 339 337 335 332 330 331 333 335 336 336
Height
1547 1546 1545 1544 1543 1543 1541 1540 1539 1538 1536 1535 1533 1532 1530 1529 1528 1526 1525 1524 1522 1521 1520 1518 1518 1516 1515 1514 1513 1513 1511 1511 1510 1509 1508 1507 1507 1506 1505 1504 1503 1502 1501 1500 1499 1498 1497 1496 1495 1494 1493 1492 1491 1490 1489 1488 1488 1487 1486 1485 1484 1483 1483 1482 1481 1480 1480 1481 1481
1546 1545 1544 1543 1542 1541 1540 1539 1538 1536 1535 1534 1532 1531 1529 1528 1527 1525 1524 1523 1521 1520 1519 1518 1516 1515 1514 1513 1512 1511 1511 1510 1509 1508 1507 1506 1505 1504 1504 1503 1502 1501 1500 1499 1498 1497 1497 1495 1495 1494 1493 1492 1491 1490 1488 1488 1487 1486 1485 1484 1483 1483 1482 1481 1481 1481 1480 1480 1480
1546 1544 1543 1542 1541 1540 1538 1537 1536 1535 1534 1533 1531 1530 1529 1527 1526 1524 1523 1522 1521 1519 1518 1517 1515 1514 1513 1512 1511 1510 1509 1509 1508 1507 1506 1505 1504 1503 1503 1502 1501 1500 1499 1498 1498 1497 1496 1495 1494 1493 1492 1491 1490 1489 1488 1487 1486 1485 1484 1483 1483 1482 1482 1482 1481 1481 1481 1480 1480
1545 1543 1542 1541 1540 1539 1538 1536 1535 1534 1533 1532 1530 1529 1528 1527 1525 1524 1522 1521 1520 1518 1517 1515 1514 1513 1512 1511 1510 1509 1508 1508 1507 1506 1505 1504 1503 1503 1502 1501 1500 1499 1498 1498 1497 1496 1495 1494 1493 1492 1491 1490 1489 1488 1488 1486 1485 1484 1483 1483 1483 1483 1482 1482 1482 1482 1481 1481 1480
1544 1543 1542 1541 1539 1538 1537 1536 1535 1533 1532 1531 1530 1528 1527 1526 1524 1523 1521 1520 1519 1518 1516 1515 1513 1512 1511 1510 1509 1508 1507 1507 1506 1505 1504 1503 1503 1502 1501 1500 1499 1498 1498 1497 1496 1495 1494 1493 1492 1492 1491 1490 1489 1488 1487 1486 1485 1484 1483 1483 1483 1483 1483 1483 1483 1482 1482 1481 1481
1543 1542 1541 1540 1539 1538 1537 1535 1534 1533 1531 1530 1529 1527 1526 1524 1523 1522 1520 1519 1518 1517 1515 1514 1512 1511 1510 1508 1508 1507 1506 1506 1505 1504 1503 1503 1502 1501 1500 1499 1498 1498 1497 1496 1495 1494 1493 1493 1492 1491 1491 1490 1489 1488 1487 1486 1485 1484 1484 1483 1483 1483 1483 1483 1483 1482 1482 1481 1480
1543 1541 1540 1539 1538 1537 1536 1534 1533 1532 1531 1529 1528 1526 1525 1523 1522 1521 1520 1518 1517 1516 1514 1513 1511 1510 1508 1508 1507 1506 1505 1505 1504 1503 1503 1502 1501 1500 1500 1499 1498 1497 1496 1495 1494 1494 1493 1493 1492 1491 1490 1490 1489 1488 1487 1486 1485 1485 1484 1484 1484 1484 1483 1483 1482 1481 1481 1480 1479
1542 1541 1540 1538 1537 1536 1535 1533 1532 1531 1529 1528 1527 1525 1524 1523 1521 1520 1519 1518 1516 1514 1513 1511 1510 1509 1508 1506 1505 1505 1504 1504 1503 1502 1501 1501 1500 1500 1499 1498 1497 1496 1495 1495 1494 1493 1493 1492 1492 1491 1490 1489 1489 1488 1488 1487 1486 1486 1485 1485 1484 1484 1483 1482 1481 1480 1479 1478 1478
1541 1540 1539 1538 1536 1535 1533 1532 1531 1530 1528 1527 1526 1524 1523 1522 1521 1519 1518 1516 1515 1513 1512 1510 1509 1508 1506 1505 1504 1504 1503 1503 1502 1501 1500 1500 1499 1499 1498 1497 1497 1496 1495 1494 1493 1493 1493 1492 1491 1491 1490 1489 1489 1488 1488 1487 1487 1486 1486 1485 1484 1483 1483 1482 1480 1479 1478 1477 1476
1540 1539 1537 1536 1535 1533 1532 1531 1530 1529 1528 1526 1525 1524 1522 1521 1520 1518 1517 1515 1514 1513 1511 1510 1508 1507 1506 1504 1503 1503 1502 1502 1501 1500 1499 1499 1498 1498 1497 1497 1496 1495 1494 1494 1493 1493 1492 1491 1491 1490 1490 1489 1489 1488 1488 1487 1487 1486 1486 1485 1484 1483 1482 1481 1480 1478 1477 1476 1475
1539 1538 1536 1535 1533 1532 1531 1530 1529 1528 1526 1525 1524 1523 1521 1520 1519 1518 1516 1515 1513 1512 1510 1509 1508 1506 1505 1504 1503 1502 1501 1501 1500 1499 1499 1498 1498 1497 1497 1496 1496 1495 1494 1493 1493 1492 1492 1491 1491 1490 1490 1489 1488 1488 1487 1487 1486 1486 1485 1484 1483 1482 1481 1480 1479 1478 1476 1475 1474
1538 1537 1535 1534 1533 1531 1530 1529 1528 1527 1525 1524 1523 1522 1520 1519 1518 1517 1515 1514 1513 1511 1510 1508 1507 1506 1504 1503 1502 1501 1500 1500 1499 1499 1498 1498 1497 1496 1496 1495 1495 1494 1494 1493 1493 1492 1491 1491 1490 1490 1489 1489 1488 1488 1487 1486 1486 1485 1484 1483 1482 1481 1480 1479 1478 1477 1475 1474 1473
1537 1536 1534 1533 1532 1530 1529 1528 1527 1525 1524 1523 1522 1521 1519 1518 1517 1516 1515 1513 1512 1511 1509 1508 1506 1505 1504 1502 1501 1501 1500 1500 1499 1498 1498 1497 1497 1496 1496 1495 1494 1494 1493 1493 1492 1492 1491 1490 1490 1489 1489 1488 1488 1487 1487 1486 1485 1484 1483 1482 1481 1480 1479 1478 1477 1476 1475 1473 1472
1536 1535 1533 1532 1531 1529 1528 1527 1525 1524 1523 1522 1521 1520 1519 1518 1517 1515 1514 1513 1512 1510 1509 1507 1506 1504 1503 1502 1501 1501 1500 1499 1499 1498 1498 1497 1496 1496 1495 1495 1494 1493 1493 1493 1492 1491 1491 1490 1489 1489 1488 1488 1487 1487 1486 1485 1484 1483 1483 1482 1480 1479 1478 1478 1476 1475 1474 1473 1472
1535 1534 1533 1531 1530 1528 1527 1526 1524 1523 1522 1521 1520 1519 1518 1517 1516 1515 1513 1512 1511 1510 1508 1507 1505 1504 1503 1502 1502 1501 1500 1499 1498 1498 1497 1497 1496 1495 1495 1494 1494 1493 1493 1492 1492 1491 1490 1489 1489 1488 1488 1487 1486 1486 1485 1484 1483 1483 1482 1481 1479 1478 1478 1476 1475 1474 1473 1472 1471
1534 1533 1532 1530 1529 1528 1526 1525 1523 1523 1521 1520 1519 1518 1517 1516 1515 1514 1513 1512 1510 1509 1508 1507 1505 1504 1503 1502 1501 1501 1500 1499 1498 1498 1497 1496 1496 1495 1494 1494 1493 1493 1492 1491 1491 1490 1490 1489 1488 1488 1487 1486 1486 1485 1484 1483 1483 1482 1481 1479 1478 1477 1476 1475 1474 1473 1472 1471 1470
1533 1532 1531 1530 1528 1527 1525 1524 1523 1522 1521 1520 1518 1518 1517 1515 1514 1513 1512 1511 1510 1509 1508 1506 1505 1504 1503 1502 1501 1500 1499 1499 1498 1497 1497 1496 1495 1495 1494 1493 1493 1492 1491 1491 1490 1489 1489 1488 1488 1487 1486 1486 1485 1484 1483 1482 1481 1480 1479 1478 1477 1476 1475 1474 1473 1472 1470 1469 1468
1533 1531 1530 1529 1527 1526 1525 1523 1522 1521 1520 1519 1518 1517 1516 1515 1514 1513 1512 1511 1509 1508 1507 1506 1505 1504 1503 1502 1501 1500 1499 1498 1498 1497 1496 1496 1495 1494 1493 1493 1492 1492 1491 1490 1489 1488 1488 1488 1487 1486 1486 1485 1484 1483 1482 1481 1480 1479 1478 1477 1476 1475 1474 1473 1471 1470 1469 1468 1467
1532 1530 1529 1528 1527 1525 1524 1523 1522 1520 1519 1518 1518 1517 1516 1514 1513 1512 1511 1510 1509 1508 1507 1505 1504 1503 1503 1502 1501 1500 1499 1498 1498 1497 1496 1495 1495 1494 1493 1493 1492 1491 1490 1489 1489 1488 1487 1487 1486 1486 1485 1484 1483 1482 1481 1480 1479 1478 1477 1476 1474 1473 1472 1471 1470 1468 1468 1466 1465
1531 1529 1528 1527 1526 1524 1523 1522 1521 1520 1519 1518 1517 1516 1515 1514 1513 1512 1511 1509 1508 1507 1506 1505 1504 1503 1502 1501 1500 1500 1499 1498 1497 1496 1496 1495 1494 1493 1493 1492 1491 1491 1490 1489 1488 1488 1487 1486 1485 1485 1484 1483 1482 1481 1480 1479 1478 1477 1475 1474 1473 1472 1470 1469 1468 1467 1466 1465 1464
1530 1529 1528 1526 1525 1523 1522 1521 1520 1519 1518 1517 1516 1515 1514 1513 1513 1511 1510 1509 1508 1507 1506 1505 1503 1503 1502 1501 1500 1499 1498 1497 1497 1496 1495 1494 1494 1493 1492 1491 1491 1490 1489 1488 1488 1487 1486 1485 1484 1483 1483 1482 1481 1480 1478 1477 1476 1475 1473 1473 1471 1470 1469 1468 1467 1465 1464 1463 1462
1529 1528 1527 1525 1524 1523 1521 1520 1519 1518 1518 1517 1516 1515 1514 1513 1512 1511 1510 1508 1508 1506 1505 1504 1503 1502 1501 1500 1499 1498 1498 1497 1496 1495 1494 1494 1493 1492 1492 1491 1490 1489 1488 1488 1487 1486 1485 1484 1483 1483 1481 1480 1479 1478 1477 1476 1474 1473 1472 1471 1469 1468 1467 1466 1465 1464 1463 1462 1461
1528 1527 1526 1524 1523 1522 1521 1519 1518 1518 1517 1516 1515 1514 1513 1512 1511 1510 1509 1508 1507 1506 1505 1503 1503 1502 1500 1500 1499 1498 1497 1496 1496 1495 1494 1493 1493 1492 1491 1490 1489 1488 1488 1487 1486 1485 1484 1483 1482 1481 1480 1479 1478 1477 1475 1474 1473 1471 1470 1468 1467 1466 1465 1464 1463 1462 1461 1460 1459
1528 1526 1525 1523 1522 1521 1520 1519 1518 1517 1516 1515 1514 1513 1512 1511 1510 1509 1508 1507 1506 1505 1504 1503 1502 1501 1500 1499 1498 1497 1497 1496 1495 1494 1493 1493 1492 1491 1490 1489 1488 1488 1487 1486 1485 1484 1483 1482 1481 1479 1478 1477 1476 1475 1473 1472 1471 1469 1468 1467 1465 1464 1463 1462 1461 1460 1459 1458 1457
1527 1525 1524 1523 1521 1520 1519 1518 1517 1516 1515 1514 1513 1512 1511 1510 1509 1508 1508 1507 1506 1505 1503 1503 1501 1500 1499 1498 1498 1497 1496 1495 1494 1493 1493 1492 1491 1490 1489 1488 1488 1487 1486 1485 1484 1483 1482 1481 1479 1478 1477 1476 1474 1473 1472 1470 1469 1468 1466 1465 1463 1462 1461 1460 1459 1458 1457 1456 1455
1526 1525 1523 1522 1521 1519 1518 1517 1516 1515 1514 1513 1512 1511 1510 1509 1508 1508 1507 1506 1505 1504 1503 1502 1501 1500 1499 1498 1497 1496 1495 1494 1493 1493 1492 1491 1490 1489 1488 1488 1487 1486 1485 1484 1483 1482 1481 1479 1478 1477 1475 1474 1473 1471 1470 1468 1467 1466 1464 1463 1462 1460 1459 1457 1456 1455 1454 1453 1452
1525 1524 1522 1521 1520 1518 1517 1516 1515 1514 1513 1512 1511 1510 1509 1508 1508 1507 1506 1505 1504 1503 1502 1501 1500 1499 1498 1497 1496 1495 1494 1493 1493 1492 1491 1490 1489 1488 1488 1487 1486 1485 1484 1483 1482 1480 1479 1478 1477 1475 1474 1473 1471 1470 1468 1467 1466 1464 1463 1461 1460 1458 1457 1455 1454 1453 1451 1450 1449
1524 1523 1521 1520 1519 1518 1516 1515 1514 1513 1513 1512 1511 1510 1509 1508 1507 1506 1505 1504 1503 1502 1501 1500 1499 1498 1497 1497 1496 1495 1494 1493 1492 1491 1490 1489 1488 1488 1486 1485 1484 1483 1482 1481 1480 1479 1478 1476 1475 1474 1472 1471 1469 1468 1467 1465 1464 1463 1461 1460 1458 1457 1455 1453 1452 1450 1448 1447 1446
1523 1522 1520 1519 1518 1517 1516 1514 1513 1513 1512 1511 1510 1509 1508 1507 1506 1505 1504 1503 1502 1501 1500 1499 1498 1498 1497 1496 1495 1494 1493 1492 1491 1490 1489 1488 1488 1487 1485 1484 1483 1482 1481 1480 1478 1478 1476 1475 1473 1472 1471 1469 1468 1467 1465 1463 1462 1461 1459 1458 1456 1454 1453 1451 1449 1448 1446 1444 1443
1522 1521 1519 1518 1517 1516 1515 1514 1513 1512 1511 1510 1509 1508 1507 1506 1505 1504 1503 1502 1501 1500 1499 1498 1498 1497 1496 1495 1494 1493 1492 1491 1490 1490 1489 1488 1487 1485 1484 1483 1482 1481 1480 1478 1477 1476 1475 1473 1472 1470 1469 1468 1466 1465 1463 1462 1460 1458 1457 1455 1454 1452 1450 1448 1447 1445 1443 1442 1440
1521 1520 1518 1517 1516 1515 1514 1513 1512 1511 1510 1509 1508 1508 1507 1505 1504 1503 1502 1501 1500 1499 1498 1498 1497 1496 1495 1494 1493 1492 1491 1490 1490 1489 1488 1487 1486 1484 1483 1482 1481 1480 1478 1477 1476 1474 1473 1472 1470 1468 1467 1466 1464 1463 1461 1459 1458 1456 1454 1453 1451 1449 1448 1446 1444 1443 1441 1439 1437
1520 1518 1518 1516 1515 1514 1513 1512 1511 1510 1509 1508 1508 1507 1506 1504 1503 1503 1501 1500 1499 1498 1497 1496 1496 1495 1494 1493 1492 1491 1491 1490 1489 1488 1487 1486 1484 1483 1482 1481 1480 1478 1477 1476 1474 1473 1471 1470 1468 1467 1465 1463 1462 1460 1459 1457 1455 1454 1452 1450 1449 1447 1445 1443 1442 1440 1438 1437 1435
1518 1518 1516 1515 1514 1513 1512 1511 1510 1509 1509 1508 1507 1506 1505 1503 1503 1501 1500 1499 1498 1497 1496 1495 1494 1494 1493 1492 1492 1491 1490 1489 1488 1487 1486 1485 1483 1483 1481 1480 1479 1478 1476 1474 1473 1471 1470 1468 1466 1464 1463 1461 1460 1458 1457 1455 1453 1452 1450 1448 1447 1445 1443 1442 1440 1438 1436 1435 1433
1518 1516 1515 1514 1513 1512 1511 1510 1509 1509 1508 1507 1506 1505 1504 1503 1501 1500 1499 1498 1497 1496 1495 1494 1494 1493 1492 1492 1491 1490 1489 1488 1487 1486 1485 1484 1483 1482 1481 1479 1478 1477 1475 1473 1472 1470 1468 1467 1465 1463 1462 1460 1458 1457 1455 1453 1452 1450 1448 1447 1445 1443 1441 1440 1438 1436 1435 1433 1432
1516 1515 1514 1513 1512 1511 1510 1509 1508 1508 1507 1506 1505 1504 1503 1502 1500 1499 1498 1497 1496 1496 1495 1494 1493 1492 1492 1491 1490 1489 1488 1487 1486 1485 1484 1483 1482 1481 1479 1478 1477 1476 1474 1473 1471 1469 1468 1466 1464 1463 1461 1459 1457 1456 1454 1452 1450 1448 1446 1444 1443 1441 1440 1438 1436 1435 1433 1432 1431
1515 1514 1513 1512 1511 1510 1509 1508 1508 1507 1506 1505 1504 1503 1502 1500 1499 1498 1497 1496 1495 1495 1494 1493 1493 1492 1491 1490 1489 1488 1487 1486 1485 1484 1483 1482 1481 1480 1478 1477 1476 1475 1473 1472 1470 1468 1467 1465 1463 1462 1460 1458 1456 1454 1452 1450 1448 1446 1444 1443 1441 1439 1438 1436 1435 1433 1432 1431 1429
1514 1513 1512 1511 1510 1509 1508 1507 1507 1506 1505 1504 1503 1502 1500 1499 1498 1497 1496 1495 1495 1494 1493 1493 1492 1491 1490 1489 1488 1488 1487 1486 1485 1483 1482 1481 1480 1479 1478 1476 1475 1473 1472 1471 1469 1467 1466 1464 1462 1460 1458 1456 1454 1452 1450 1448 1446 1444 1443 1441 1439 1438 1436 1435 1433 1432 1430 1429 1428
1513 1512 1511 1509 1508 1508 1507 1506 1506 1505 1504 1503 1502 1500 1499 1498 1497 1496 1495 1494 1494 1493 1493 1492 1491 1490 1490 1489 1488 1487 1486 1485 1484 1483 1481 1480 1479 1478 1476 1475 1474 1472 1471 1469 1468 1466 1464 1463 1461 1459 1457 1455 1453 1451 1449 1447 1445 1443 1441 1439 1437 1436 1434 1433 1431 1430 1429 1428 1427
1512 1511 1509 1508 1508 1507 1506 1505 1505 1504 1503 1502 1500 1499 1498 1497 1496 1495 1494 1494 1493 1493 1492 1491 1491 1490 1489 1488 1487 1486 1485 1484 1483 1482 1480 1479 1478 1477 1475 1474 1473 1471 1470 1468 1467 1465 1463 1462 1460 1458 1456 1454 1452 1449 1447 1445 1443 1441 1439 1437 1435 1434 1432 1431 1430 1429 1428 1427 1426
1511 1509 1508 1508 1507 1506 1505 1504 1503 1503 1502 1501 1499 1498 1497 1496 1495 1494 1494 1493 1493 1492 1491 1491 1490 1489 1488 1488 1486 1485 1484 1483 1482 1481 1479 1478 1477 1476 1474 1473 1472 1470 1468 1467 1466 1464 1462 1461 1459 1457 1455 1453 1450 1448 1446 1444 1441 1439 1437 1435 1434 1432 1431 1430 1428 1428 1427 1426 1425
1509 1508 1507 1506 1506 1505 1504 1503 1503 1502 1501 1500 1498 1497 1496 1495 1494 1494 1493 1493 1492 1491 1491 1490 1489 1488 1488 1487 1486 1484 1483 1482 1481 1480 1478 1477 1476 1475 1473 1472 1470 1469 1468 1466 1464 1463 1461 1460 1458 1456 1454 1452 1449 1447 1445 1442 1440 1438 1436 1434 1433 1431 1430 1428 1427 1426 1425 1424 1423